Other Surface Observations
Issued by NWS

Home | Current Version | Previous Version | Text Only | Print | Product List | Glossary On
Versions: 1 2 3 4 5 6 7 8 9 10 11 12 13 14 15 16 17 18 19 20 21 22 23 24 25 26 27 28 29 30 31 32 33 34 35 36 37 38 39 40 41 42 43 44 45 46 47 48 49 50
373
SXUS52 KTAE 241518
OSOTAE
OSOTAE
North Florida/South Alabama/Southwest Georgia Weather Roundup
National Weather Service Tallahassee Florida
1100 AM EDT SAT JUN 24 2017

Note: "fair" indicates few or no clouds below 12,000 feet with no
significant weather and/or obstructions to visibility.

!FLZ017-115-028-034-025-241600
...North Florida...

CITY           SKY/WX    TMP DP  RH WIND       PRES   REMARKS
TALLAHASSEE    MOSUNNY   87  73  62 SW9       30.05S HX  94
APALACHICOLA   MOSUNNY   86  79  79 SW9       30.07R HX  99
PERRY          MOSUNNY   87  73  64 SW6       30.07S HX  94
CROSS CITY     MOSUNNY   86  72  62 W7        30.08R HX  92
JACKSONVILLE   MOSUNNY   86  74  67 SW12      30.06R HX  94
$$

!FLZ112-006-005-002-011-241600
...Florida Panhandle...

CITY           SKY/WX    TMP DP  RH WIND       PRES   REMARKS
MARIANNA       MOSUNNY   85  75  72 W12       30.04R HX  93
BONIFAY        NOT AVBL
PANAMA CITY NW PTSUNNY   84  74  71 SW12      30.04R HX  91
TYNDALL AFB    MOSUNNY   83  75  76 SW12      30.06R HX  90
TYND DRONE APT FAIR      84  75  74 SW8       30.06R HX  92
DE FUNIAK SPR  PTSUNNY   83  74  73 SW8       30.05S
EGLIN AFB      PTSUNNY   84  75  74 SW12      30.05R HX  92
DESTIN         CLOUDY    87  81  82 VRB7      30.05R HX 104
HURLBURT       DRIZZLE   84  73  67 SW13G20   30.03R HX  90
CRESTVIEW      CLOUDY    84  74  71 SW9       30.05R HX  91
PENSACOLA      PTSUNNY   88  75  65 SW14      30.03S HX  97
$$

!ALZ063-066-241600
...South Alabama...

CITY           SKY/WX    TMP DP  RH WIND       PRES   REMARKS
DOTHAN         PTSUNNY   85  75  72 SW13      30.08R HX  93
OZARK CAIRNS   MOSUNNY   84  75  75 SW9       30.04R HX  91
FT RUCKER HELI MOSUNNY   83  75  75 SW9       30.03R HX  91
RUCKER HELI 3  PTSUNNY   83  75  75 W10G17    30.03S HX  91
RUCKER HELI 2  CLOUDY    82  75  78 SW7       30.03R
FLORALA APT    MOSUNNY   84  75  74 SW6       30.06R HX  92
ANDALUSIA      PTSUNNY   86  74  67 W10       30.03R HX  94
TROY           PTSUNNY   81  79  94 VRB6      30.04R HX  90
EUFALA         PTSUNNY   85  74  69 W8        30.02R HX  92
MOBILE         RAIN      77  74  90 NW7       30.06R FOG
$$

!GAZ120>161-241600
...Southwest and South Central Georgia...

CITY           SKY/WX    TMP DP  RH WIND       PRES   REMARKS
THOMASVILLE    FAIR      84  75  74 W7        30.06S HX  92
BAINBRIDGE     PTSUNNY   91  82  75 SW9       30.05R HX 114
MOODY AFB      SUNNY     86  73  63 S10       30.05R HX  93
VALDOSTA       MOSUNNY   84  72  67 SW8       30.06S
MOULTRIE       SUNNY     82  72  69 W9        30.07R
BLAKELY        MOSUNNY   86  73  66 SW8G16    30.04S HX  93
ALBANY         PTSUNNY   83  74  74 SW10      30.06S
TIFTON         PTSUNNY   83  73  72 SW8       30.05S
FITZGERALD     CLOUDY    84  76  77 SW8       30.07S HX  92
CORDELE        PTSUNNY   87  74  64 W9G16     30.05R HX  96
AMERICUS       PTSUNNY   81  70  69 W9        30.06R
HOMERVILLE     FAIR      86  75  70 SW9       30.06S HX  95
$$

!GMZ750-755-770-775-241600
...Coastal and Buoy Obs...

STATION/POSITION TIME  TEMP    WIND        PRES    VSBY  WAVE
                       AIR SEA DIR/SP/G                  HT/PER
                 (UTC) (F)     (DEG/KT/KT) (MB)    (MI)  (FT/S)
KEATON BEACH     1500   82     240/  8/  9 1018.2R
CEDAR KEY        1500   84     250/  4/  5 1019.1R
C TOWER          1500   81     230/  8/  8 1018.8R
APALACHICOLA BUO 1450   81 83   CALM  /  2 1018.1R         3/ 6
PANAMA CITY BUOY 1450   81 82  250/  2/  4 1017.9S         3/ 7
MOBILE BUOY      1500   81 82  210/  6/  8 1018.0
ORANGE BCH AL BU 1450   81 81  220/ 12/ 14 1016.5F         3/ 6
$$




USA.gov is the U.S. government's official web portal to all federal, state and local government web resources and services.